Location: Newark
(45.6439°N, 0.5436°E)
Time: 20:10:44
(UTC+00:00)

N. Korean satellite - Pass Details

Date: 28 November 2019
Orbit: 456 x 506 km, 97.2° (Epoch: 05 December)

Event Time Altitude Azimuth Distance (km) Brightness Sun altitude
Rises 05:25:18 0° 19° (NNE) 2,596 10.4 -18.5°
Reaches altitude 10° 05:27:31 10° 28° (NNE) 1,699 9.5 -18.1°
Maximum altitude 05:30:56 37° 97° (E) 778 8.2 -17.5°
Drops below altitude 10° 05:34:16 10° 166° (SSE) 1,659 9.6 -16.9°
Sets 05:36:24 0° 175° (S) 2,523 10.4 -16.6°
